Погода в Скиве

Дания     56°33′50″N   9°01′47″E
темп.,
°C
ветер,
м/с
пор.,
м/с
влажн.,
%
обл.,
%
осадки,
мм/ч
давл.,
гПа
погр.,
м
12 мая, ср
ср1223:00+10с3982100 0.0 1010337
02:00+10с4989100 1.2 1007402
05:00+9с51098100 6.9 1006439
08:00+9ссз41098100 8.4 1006405
11:00+10ссз4697100 0.6 1007400
14:00+11ссз5689100 3.6 1008578
17:00+12ссз4687100 0.1 1009713
20:00+10зсз3691100 0.1 1009383
13 мая, чт
чт1323:00+9зсз378883 0.0 1010241
02:00+8зсз369399 0.0 1010140
05:00+8сз379088 0.0 1009180
08:00+10сз477686 0.0 1008261
11:00+11сз4671100 0.0 1008350
14:00+13сз5767100 0.0 1006630
17:00+13ссз677439 0.3 1005617
20:00+11ссз3783100 0.3 1005359
14 мая, пт
пт1423:00+10ссз2588100 0.2 1005186
02:00+10с2289100 0.3 100479
05:00+9с119263 0.0 100313
08:00+12в238636 0.0 1004227
11:00+14вюв4570100 0.0 1004568
14:00+13всв238077 0.0 1005249
17:00+15в237392 1.6 1004631
20:00+14юв2379100 4.0 100451
15 мая, сб
сб1523:00+11юв3491100 0.1 100572
02:00+10ююв3495100 0.1 100468
05:00+8юз359796 0.0 1004121
08:00+10юз239295 0.0 1005312
11:00+12ююз338099 0.0 1005715
14:00+11юз5578100 0.1 1005814
17:00+11юз567499 0.1 1005979
20:00+10юз46785 0.2 1005632
16 мая, вс
вс1623:00+6ююз369658 0.0 1007145
02:00+5ююз349555 0.0 100764
05:00+5ююз229294 0.0 100720
08:00+8в1281100 0.1 1007180
11:00+8вюв3387100 1.3 1008390
14:00+9всв348897 3.3 1008445
17:00+11всв227799 0.2 1007860
20:00+10всв338560 0.3 1007295